Flag for Canada Weather past 2 weeks in Corner Brook, Newfoundland and Labrador, Canada

Now
28 °F

Overcast.


Feels Like: 17 °F
Forecast: 27 / 30 °F
Wind: 14 mph from Southwest

Location: Deer Lake

Current Time: Dec 28, 2014 at 10:21:03 AM

Latest Report: Dec 28, 2014 at 9:30 AM


Visibility: 15 mi

Pressure: 29.70 "Hg

Humidity: 80%

Dew point: 23 °F

Location of Corner BrookLocation

Historic Weather in Corner Brook — Graph

°F

Corner Brook temperature yesterday

Maximum temperature yesterday: 34 °F (at 12:30 AM)
Minimum temperature yesterday: 30 °F (at 7:30 AM)
Average temperature yesterday: 31 °F

Past Weeks' High & Low Weather Summary

 TemperatureHumidityPressure
High46 °F (Dec 26, 12:30 AM)100% (Dec 13, 8:30 AM)30.49 "Hg (Dec 13, 8:30 AM)
Low7 °F (Dec 22, 6:30 AM)64% (Dec 27, 9:30 AM)29.29 "Hg (Dec 26, 12:30 AM)
Average31 °F87%29.95 "Hg
* Reported Dec 13 8:30 AM — Dec 28 8:30 AM, Corner Brook, Weather by CustomWeather, © 2014

Note: Actual official high and low records may vary slightly from our data, if they occured in-between our weather recording intervals... More about our weather records

Advertising

Corner Brook weather history for previous 24 hours

 ConditionsComfort  
Time TempWeatherWind HumidityBarometerVisibility
8:30 AM
Dec 28
28 °FOvercast.15 mph86%29.71 "Hg15 mi
7:30 AM30 °FOvercast.9 mph75%29.71 "Hg15 mi
6:30 AM30 °FOvercast.12 mph69%29.71 "Hg15 mi
5:30 AM30 °FOvercast.12 mph69%29.71 "Hg15 mi
4:30 AM30 °FOvercast.15 mph64%29.70 "Hg15 mi
3:30 AM30 °FOvercast.15 mph69%29.71 "Hg15 mi
2:30 AM30 °FOvercast.14 mph69%29.70 "Hg15 mi
1:30 AM30 °FOvercast.14 mph64%29.70 "Hg15 mi
12:30 AM30 °FOvercast.13 mph64%29.71 "Hg15 mi
11:30 PM
Dec 27
30 °FOvercast.16 mph64%29.70 "Hg15 mi
10:30 PM30 °FOvercast.14 mph64%29.70 "Hg15 mi
9:30 PM30 °FOvercast.16 mph64%29.69 "Hg15 mi
8:30 PM30 °FSnow flurries. Overcast.12 mph64%29.67 "Hg15 mi
7:30 PM30 °FSnow flurries. Overcast.15 mph69%29.66 "Hg10 mi
6:30 PM30 °FSnow flurries. Overcast.12 mph69%29.64 "Hg10 mi
5:30 PM30 °FSnow flurries. Overcast.16 mph69%29.63 "Hg6 mi
4:30 PM30 °FSnow flurries. Overcast.22 mph69%29.59 "Hg6 mi
3:30 PM32 °FSnow flurries. Overcast.17 mph64%29.58 "Hg10 mi
2:30 PM30 °FSnow flurries. Overcast.16 mph69%29.56 "Hg6 mi
1:30 PM30 °FSnow flurries. Overcast.14 mph75%29.55 "Hg6 mi
12:30 PM30 °FSnow flurries. Overcast.17 mph86%29.56 "Hg3 mi
11:30 AM32 °FSnow flurries. Overcast.15 mph75%29.56 "Hg3 mi
10:30 AM32 °FSnow flurries. Overcast.12 mph69%29.57 "Hg6 mi
Weather by CustomWeather, © 2014

See weather overviewHow to use our weather pages